Content
SEND FEEDBACK

Daily
Averages
Monthly
Summary
United States of America

SAULT STE. MARIE, MICHIGAN


Home > North America > United States > Michigan
Elevation: 699 feet     Latitude: 46 28N     Longitude: 084 22W

WEATHER
 
SELECT A DAY
Number of Records: 215,913;   Date Range: 1/1/95 - 9/20/14
 
SHARE

PRINT THIS DATA

[ ← Previous Day ]
WEATHER ALMANAC - APRIL 7, 2013
[ Next Day → ]
[ °C ]   °F
Weather ElementAverageHighLow
Temperature34.2 °F37 °F (12:55 pm)32 °F (10:55 pm)
Dewpoint29.6 °F32 °F (5:18 am)26.1 °F (11:55 pm)
Humidity83.6 %92 % (5:18 am)70 % (1:55 pm)
Barometer29.67 in30.05 in (11:55 pm)29.42 in (5:07 am)
Wind Speed9.3 mph19.6 mph (1:55 pm)
Wind Gust27.6 mph (1:55 pm)
Weather ElementAverage
Visibility6.9 mi
Wind DirectionSW (225.5 °)

Weather ElementTotal
Precipitation0.20 in
Heating Degree Days30.5 (Base 65)
Averaged from 33 records on April 7, 2013
WEATHER CONDITIONS BREAKOUT
WIND DIRECTION BREAKOUT
WEATHER BY HOUR - APRIL 7, 2013
[ °C ]   °F
Local TimeTemperatureDewpointHumidityBarometerVisibilityWind DirectionWind SpeedGust SpeedPrecipitationEventsConditions
12:35 AM33.1 °F30.0 °F89 %29.62 in6.0 miEast (100°)10.4 mph0.02 inRainLight Rain
12:55 AM33.1 °F30.0 °F89 %29.62 in6.0 miEast (100°)9.2 mph0.03 inRainLight Rain
1:55 AM33.1 °F30.0 °F89 %29.57 in7.0 miESE (110°)9.2 mph0.02 inRainLight Rain
2:55 AM34.0 °F30.9 °F89 %29.51 in4.0 miEast (100°)8.1 mph0.02 inRainLight Rain
3:15 AM34.0 °F30.9 °F89 %29.47 in5.0 miEast (100°)8.1 mph0.01 inRainLight Rain
3:55 AM34.0 °F30.9 °F89 %29.47 in5.0 miEast (100°)8.1 mph0.01 inRainLight Rain
4:55 AM34.0 °F30.9 °F89 %29.44 in4.0 miEast (90°)6.9 mph0.00 inRainLight Rain
5:07 AM34.0 °F30.9 °F89 %29.42 in4.0 miEast (80°)5.8 mph0.00 inRainLight Rain
5:18 AM34.0 °F32.0 °F92 %29.42 in5.0 miENE (60°)4.6 mph0.01 inRainLight Rain
5:55 AM34.0 °F32.0 °F92 %29.44 in4.0 miNNE (20°)4.6 mph0.01 inRainLight Rain
6:39 AM34.0 °F32.0 °F92 %29.43 in2.5 miCalm0.01 inRainLight Rain
6:55 AM34.0 °F32.0 °F92 %29.45 in2.0 miNW (320°)4.6 mph0.01 inRainLight Rain
7:25 AM34.0 °F32.0 °F92 %29.45 in1.8 miWNW (300°)6.9 mph0.01 inRainLight Rain
7:34 AM34.0 °F32.0 °F92 %29.46 in2.5 miWNW (300°)8.1 mph0.01 inRainLight Rain
7:44 AM34.0 °F30.9 °F89 %29.46 in3.0 miWNW (300°)9.2 mph0.01 inRainLight Rain
7:55 AM34.0 °F30.9 °F89 %29.49 in3.0 miWNW (300°)11.5 mph0.02 inRainLight Rain
8:55 AM34.0 °F30.9 °F89 %29.53 in7.0 miWNW (300°)10.4 mph0.00 inRainLight Rain
9:55 AM34.0 °F30.9 °F89 %29.58 in5.0 miWNW (300°)13.8 mph21.9 mph0.00 inSnowLight Snow
10:55 AM35.1 °F30.9 °F85 %29.62 in10.0 miNW (310°)12.7 mph20.7 mph0.00 inOvercast
11:46 AM36.0 °F30.0 °F79 %29.65 in10.0 miNW (310°)16.1 mph23.0 mphOvercast
11:55 AM36.0 °F30.0 °F79 %29.68 in10.0 miWNW (300°)13.8 mph24.2 mphOvercast
12:55 PM37.0 °F28.9 °F73 %29.73 in10.0 miNW (310°)18.4 mph25.3 mphOvercast
1:55 PM36.0 °F27.0 °F70 %29.78 in10.0 miWNW (300°)19.6 mph27.6 mphOvercast
2:55 PM36.0 °F27.0 °F70 %29.84 in10.0 miNW (310°)16.1 mph25.3 mphOvercast
3:55 PM36.0 °F27.0 °F70 %29.88 in10.0 miNW (310°)13.8 mph21.9 mphOvercast
4:55 PM36.0 °F27.0 °F70 %29.90 in10.0 miNW (310°)11.5 mphOvercast
5:55 PM35.1 °F27.0 °F72 %29.95 in10.0 miWNW (290°)11.5 mphOvercast
6:55 PM34.0 °F27.0 °F75 %29.98 in10.0 miNW (310°)8.1 mphOvercast
7:55 PM33.1 °F27.0 °F78 %29.99 in10.0 miNW (320°)8.1 mphOvercast
8:55 PM33.1 °F27.0 °F78 %30.01 in10.0 miNW (310°)5.8 mphOvercast
9:55 PM33.1 °F27.0 °F78 %30.03 in10.0 miWest (270°)4.6 mphOvercast
10:55 PM32.0 °F27.0 °F82 %30.04 in10.0 miWSW (240°)3.5 mphOvercast
11:55 PM32.0 °F26.1 °F79 %30.05 in10.0 miWest (260°)4.6 mphOvercast
Hourly data recorded from KANJ, located miles away from Sault Ste. Marie, Michigan







STORIES FROM OUR PARTNERS